EHI
0 0 0 0 0 0 0 0 0 0 0 0 0 0 0 0 0 0 0 0 0 0 0 0 0 0 0 0 0 0 0 0 0 0 0 0 0 0
0 0 0 0 0 0 0 0 0 0 0 0 0 0 0 0 0 0 0 0 0 0 0 0 0 0 0 0 0 0 0 0 0 0 0 0 0 0
0 0 0 0 0 0 0 0 0 0 0 0 0 0 0 0 0 0 0 0 0 0 0 0 0 0 0 0 0 0 0 0 0 0 0 0 0 0
0 0 0 0 0 0 0 0 0 0 0 0 0 0 0 0 0 0 0 0 0 0 0 0 0 0 0 0 0 0 0 0 0 0 0 0 0 0
0 0 0 0 0 0 0 0 0 0 0 0 0 0 0 0 0 0 0 0 0 0 0 0 0 0 0 0 0 0 0 0 0 0 0 0 0 0
0 0 0 0 0 0 0 0 0 0 0 0 0 0 0 0 0 0 0 0 0 0 0 0 0 0 0 0 0 0 0 0 0 0 0 0 0 0
0 0 0 0 0 0 0 0 0 0 0 0 0 0 0 0 0 0 0 0 0 0 0 0 0 0 0 0 0 0 0 0 0 0 0 0 0 0
0 0 0 0 0 0 0 0 0 0 0 0 0 0 0 0 0 0 0 0 0 0 0 0 0 0 0 0 0 0 0 0 0 0 0 0 0 0
0 0 0 0 0 0 0 0 0 0 0 0 0 0 0 0 0 0 0 0 0 0 0 0 0 0 0 0 0 0 0 0 0 0 0 0 0 0
0 0 0 0 0 0 0 0 0 0 0 0 0 0 0 0 0 0 0 0 0 0 0 0 0 0 0 0 0 0 0 0 0 0 0 0 0 0
0 0 0 0 0 0 0 0 0 0 0 0 0 0 0 0 0 0 0 0 0 0 0 0 0 0 0 0 0 0 0 0 0 0 0 0 0 0
0 0 0 0 0 0 0 0 0 0 0 0 0 0 0 0 0 0 0 0 0 0 0 0 0 0 0 0 0 0 0 0 0 0 0 0 0 0
0 0 0 0 0 0 0 0 0 0 0 0 0 0 0 0 0 0 0 0 0 0 0 0 0 0 0 0 0 0 0 0 0 0 0 0 0 0
0 0 0 0 0 0 0 0 0 0 0 0 0 0 0 0 0 0 0 0 0 0 0 0 0 0 0 0 0 0 0 0 0 0 0 0 0 0
0 0 0 0 0 0 0 0 0 0 0 0 0 0 0 0 0 0 0 0 0 0 0 0 0 0 0 0 0 0 0 0 0 0 0 0 0 0
0 0 0 0 0 0 0 0 0 0 0 0 0 0 0 0 0 0 0 0 0 0 0 0 0 0 0 0 0 0 0 0 0 0 0 0 0 0
0 0 0 0 0 0 0 0 0 0 0 0 0 0 0 0 0 0 0 0 0 0 0 0 0 0 0 0 0 0 0 0 0 0 0 0 0 0
0 0 0 0 0 0 0 0 0 0 0 0 0 0 0 0 0 0 0 0 0 0 0 0 0 0 0 0 0 0 0 0 0 0 0 0 0 0
0 0 0 0 0 0 0 0 0 0 0 0 0 0 0 0 0 0 0 0 0 0 0 0 0 0 0 0 0 0 0 0 0 0 0 0 0 0
0 0 0 0 0 0 0 0 0 0 0 0 0 0 0 0 0 0 0 0 0 0 0 0 0 0 0 0 0 0 0 0 0 0 0 0 0 0
0 0 0 0 0 0 0 0 0 0 0 0 0 0 0 0 0 0 0 0 0 0 0 0 0 0 0 0 0 0 0 0 0 0 0 0 0 0
0 0 0 0 0 0 0 0 0 0 0 0 0 0 0 0 0 0 0 0 0 0 0 0 0 0 0 0 0 0 0 0 0 0 0 0 0 0
0 0 0 0 0 0 0 0 0 0 0 0 0 0 0 0 0 0 0 0 0 0 0 0 0 0 0 0 0 0 0 0 0 0 0 0 0 0
Wind_Speed
6 5 4 3 3 3 3 3 3 2 3 3 2 2 2 1 4 2 3 9 11 12 13 14 15 15 16 17 17 18 18 18 19 19 20 21 21 21
5 6 5 3 3 3 3 2 3 4 4 3 3 2 2 3 5 3 4 9 11 13 14 14 14 15 16 16 17 17 18 18 19 19 20 21 21 21
5 6 6 4 3 3 2 2 2 3 4 3 2 2 2 3 4 3 4 4 5 13 14 14 14 14 15 16 16 17 18 18 18 19 20 20 20 21
7 6 6 4 4 3 3 3 3 3 4 5 3 2 3 3 3 4 4 5 4 11 13 14 14 14 15 15 16 16 17 17 18 19 19 19 19 20
7 7 6 6 5 4 4 3 3 3 3 3 3 2 2 2 3 4 5 4 5 8 11 12 13 15 15 16 16 16 16 16 17 18 18 18 18 19
6 6 6 7 6 5 4 4 3 3 2 2 3 2 2 2 2 3 4 4 5 5 7 9 12 14 15 16 16 15 15 16 17 17 17 18 18 18
5 5 5 6 7 6 4 4 4 2 2 2 2 2 2 2 3 2 4 4 4 3 4 5 6 5 7 11 13 14 15 16 17 17 18 18 18 18
6 5 5 5 6 7 6 5 5 4 3 2 2 3 4 3 3 3 3 4 4 2 3 5 3 4 5 4 11 15 15 15 16 18 18 18 18 18
7 6 4 4 5 4 3 3 3 3 4 3 3 4 4 3 2 2 3 3 4 4 3 4 3 5 5 7 14 14 14 15 16 17 18 18 17 17
6 6 6 5 4 5 3 2 1 2 2 2 3 3 3 2 2 2 3 3 4 3 2 4 3 5 6 5 11 13 15 16 17 17 17 17 17 17
5 5 6 5 7 7 5 3 1 1 1 1 1 2 4 4 2 1 2 3 4 3 1 2 3 5 5 4 6 12 15 16 17 17 17 17 17 15
4 4 6 6 7 7 5 4 3 2 0 1 2 3 3 3 4 1 1 1 3 3 2 2 3 4 5 3 3 5 7 12 16 17 17 17 17 8
5 4 4 7 6 6 4 3 4 2 2 1 0 1 1 1 2 2 1 2 2 4 3 2 3 2 4 5 5 4 4 5 6 8 12 16 17 13
6 4 4 8 7 5 3 3 3 3 2 1 0 1 1 2 2 3 3 3 3 5 5 3 3 3 4 5 6 5 5 5 5 5 5 12 13 16
5 8 8 8 6 4 3 3 3 2 1 1 1 2 2 2 2 2 2 3 3 4 3 3 3 3 3 5 6 5 5 5 4 5 6 6 6 6
6 7 8 7 5 4 3 2 1 2 2 1 1 1 1 1 2 2 2 2 3 3 4 4 4 4 4 5 5 6 5 5 5 6 7 7 6 5
7 4 3 3 2 2 1 1 1 1 1 1 1 1 1 2 2 2 2 2 2 3 4 4 4 4 6 5 4 5 5 5 5 6 7 8 7 6
8 5 4 3 3 3 2 2 1 1 1 1 1 1 1 2 2 2 2 2 3 3 4 4 4 4 4 4 6 5 4 5 6 6 5 6 8 6
5 4 4 4 3 3 3 2 2 2 1 1 1 1 2 2 2 2 2 3 3 3 4 3 2 3 4 6 6 4 4 6 6 6 5 5 7 9
4 4 4 4 4 3 3 3 2 2 1 1 1 1 1 2 2 2 3 3 4 4 4 3 3 3 4 5 5 6 9 6 5 7 7 6 6 10
4 4 4 4 4 4 3 3 3 2 2 2 2 2 2 2 2 2 3 5 4 3 4 4 5 8 3 2 4 5 6 9 9 7 6 6 6 5
5 4 4 4 4 4 3 3 3 2 2 2 2 2 2 2 2 3 3 3 3 3 4 4 4 3 2 2 5 6 7 8 10 12 9 7 4 5
5 4 4 4 4 3 3 3 4 3 3 2 2 2 2 2 2 2 3 3 3 4 4 4 3 3 2 3 4 5 7 8 6 6 6 10 13 12
Wind_Direction
190 187 189 193 188 187 173 166 176 238 268 266 277 307 308 294 311 300 289 301 306 305 304 304 304 305 306 306 307 307 308 309 309 308 307 307 306 306
184 185 195 192 184 182 182 179 181 195 240 250 242 278 304 312 307 298 287 305 304 303 303 304 306 307 307 309 309 309 309 309 309 309 308 307 307 308
184 189 198 185 182 184 173 173 184 183 233 263 245 274 281 285 304 302 297 293 300 303 305 308 310 310 312 312 311 311 311 310 310 309 309 309 308 308
189 186 195 180 187 182 178 187 195 196 212 257 270 271 269 283 296 301 306 306 295 302 308 311 311 313 315 315 313 313 314 311 310 309 309 309 310 310
187 187 189 180 192 190 187 194 198 199 205 234 267 268 279 299 305 298 297 293 301 304 310 312 311 314 315 316 315 315 315 313 312 311 311 311 312 312
184 185 185 185 192 191 193 200 193 199 210 235 262 277 280 294 296 294 305 305 304 304 309 312 312 316 318 317 317 318 320 319 316 315 313 312 312 312
177 181 182 183 186 187 187 192 186 196 208 233 258 280 282 296 288 279 296 305 298 286 307 305 305 304 311 314 316 318 321 322 320 318 316 315 313 312
173 174 175 180 187 193 200 192 179 186 203 213 241 260 268 270 276 291 298 316 304 293 300 296 294 294 299 296 310 318 322 323 322 321 318 317 317 315
172 170 170 174 175 173 187 190 206 219 214 210 229 246 261 259 268 281 278 280 273 285 300 284 286 292 298 305 313 318 324 326 325 322 321 320 319 318
170 172 170 169 170 163 158 167 203 231 239 225 219 242 255 258 239 258 268 286 279 281 273 275 286 295 303 297 304 318 326 326 325 323 321 320 320 320
162 164 163 168 171 163 157 171 196 259 306 306 310 323 328 329 345 12 341 330 309 294 270 280 291 303 293 280 295 316 324 325 325 325 324 324 323 323
151 158 165 166 167 166 167 173 198 230 195 3 353 351 347 341 351 349 248 292 304 293 286 296 287 318 307 286 290 302 310 316 324 326 327 327 326 325
156 161 166 162 162 165 165 176 199 180 154 157 286 327 337 334 317 302 262 231 249 263 276 298 285 286 275 298 299 293 299 306 314 314 321 325 326 325
162 163 162 157 156 155 159 168 152 118 112 120 176 298 303 302 299 296 288 273 251 252 262 261 260 278 289 296 295 301 305 299 300 302 305 317 320 321
155 156 153 149 144 143 147 142 125 118 129 164 260 273 273 278 290 300 302 302 297 286 282 274 267 276 269 273 287 294 306 302 300 307 308 309 304 307
142 143 140 135 129 131 129 121 122 158 168 205 247 271 288 297 301 303 307 317 317 305 293 285 280 273 269 269 271 284 288 293 307 311 309 302 296 291
137 123 121 129 137 136 129 135 144 145 163 203 229 281 301 311 307 308 302 313 303 304 310 307 300 286 265 258 272 277 288 293 295 307 312 309 300 294
141 147 159 165 172 175 172 175 184 196 200 203 225 256 281 294 300 304 307 299 298 297 299 304 321 328 324 292 244 269 288 296 303 306 306 307 305 305
147 161 172 178 180 177 179 185 200 208 196 202 225 251 277 289 297 302 307 307 302 299 299 300 313 324 326 320 301 277 298 309 311 310 303 297 296 300
161 170 176 178 177 178 182 189 195 190 197 216 227 240 254 271 290 299 298 295 303 308 309 308 302 299 294 296 294 296 303 303 306 307 306 299 285 290
170 174 176 176 177 178 182 185 187 192 200 212 229 238 242 251 271 282 289 303 312 306 305 302 291 310 302 296 300 300 302 308 311 305 306 309 308 308
172 176 177 176 173 174 177 179 183 192 198 212 229 237 242 247 263 273 280 290 292 293 294 295 304 317 321 301 304 305 307 313 317 318 313 309 311 315
173 173 172 172 172 171 175 181 188 198 201 209 224 232 236 246 257 264 273 280 291 299 305 308 315 315 299 288 294 301 307 314 317 324 316 323 324 315